Regional Weather Roundup
Issued by NWS

Home | Current Version | Previous Version | Graphics & Text | Print | Product List | Glossary On
Versions: 1 2 3 4 5 6 7 8 9 10 11 12 13 14 15 16 17 18 19 20 21 22 23 24 25 26 27 28 29
000
ASUS45 KBOU 260407
RWRCO

WEATHER ROUNDUP FOR COLORADO
NATIONAL WEATHER SERVICE DENVER/BOULDER CO
1000 PM MDT TUE APR 25 2017

NOTE: "FAIR" INDICATES FEW OR NO CLOUDS BELOW 12000 FEET WITH NO
SIGNIFICANT WEATHER AND/OR OBSTRUCTIONS TO VISIBILITY.

COZ001>005-013-030-031-260500-
...NORTHWEST COLORADO...

CITY           SKY/WX    TMP DP  RH WIND       PRES   REMARKS
CRAIG          FAIR      37  30  75 W5        29.86R
HAYDEN         FAIR      34  28  80 W6        29.85R WCI  29
MEEKER         MOCLDY    36  35  96 CALM      29.88R
MOUNT WERNER   NOT AVBL
STEAMBOAT SPGS CLOUDY    33  32  97 CALM      29.84R
WALDEN           N/A     27  21  80 N13       29.86R WCI  16
$$

COZ006>008-011-260500-
...WEST CENTRAL VALLEYS...

CITY           SKY/WX    TMP DP  RH WIND       PRES   REMARKS
GRAND JUNCTION MOCLDY    44  37  76 W6        29.86R
MONTROSE       LGT RAIN  41  33  73 SW9       29.89R
EAGLE          CLOUDY    36  32  85 CALM      29.87R
RIFLE          FAIR      40  34  79 W9        29.86R
DELTA          FAIR      44  37  78 SW6       29.86R
NUCLA          FAIR      37  32  81 E8        29.91R
$$

COZ017>023-064>068-260500-
...SOUTHWEST COLORADO...

CITY           SKY/WX    TMP DP  RH WIND       PRES   REMARKS
DURANGO        FAIR      41  21  44 NW18G25   29.77S
CORTEZ         FAIR      37  29  72 NE3       29.86R
PAGOSA SPRINGS FAIR      36  32  84 CALM      29.80R
TELLURIDE      FAIR      29  26  90 W6        29.91R WCI  23
WOLF CREEK PAS CLOUDY    19  14  79 N9        29.89R WCI   9
$$

COZ009-010-012-014-032>034-037-058>063-260500-
...CENTRAL COLORADO...

CITY           SKY/WX    TMP DP  RH WIND       PRES   REMARKS
ASPEN          FAIR      30  29  96 W6        29.84R WCI  24
BUENA VISTA    MOCLDY    37  20  49 NW17      29.79R
COPPER MTN     CLOUDY    23  18  80 MISG      29.86R
BERTHOUD PASS  CLOUDY    14   3  62 NW26G37   29.82R WCI  -6
COTTONWOOD PAS FAIR      32  19  59 CALM      29.82R
GUNNISON       FAIR      33  28  81 W12       29.84R WCI  24
KREMMLING      CLOUDY    41  30  65 CALM      29.84R
LEADVILLE      FAIR      25  19  78 NW7       29.83R WCI  17
MONARCH PASS   CLOUDY    19  18  93 NW10      29.95R FOG     WCI   8
SALIDA         MOCLDY    41  25  52 NW6G16    29.86R
SUNLIGHT       FOG       21  21 100 W6        29.93R VSB 1/2 WCI  14
WILKERSON PASS FOG       23  21  93 NE7       29.85R VSB 3/4 WCI  15
$$

COZ069>075-260500-
...SAN LUIS VALLEY/SANGRE DE CRISTO MOUNTAINS...

CITY           SKY/WX    TMP DP  RH WIND       PRES   REMARKS
ALAMOSA        LGT SNOW  35  30  82 N23G31    29.76R WCI  23
LA VETA PASS   HVY SNOW  27  23  86 MISG      29.88R VSB<1/4
SAGUACHE       CLOUDY    36  23  60 NW14G20   29.78R
$$

COZ035-036-038>040-260500-
...NORTHERN COLORADO FRONT RANGE...

CITY           SKY/WX    TMP DP  RH WIND       PRES   REMARKS
DENVER INTL AP CLOUDY    36  29  75 NE20      29.83R
DMNS CITY PARK   N/A     37  29  72 MISG      29.85R
AURORA         CLOUDY    35  35  99 NE13      29.84R WCI  27
FRONT RANGE AP NOT AVBL
ERIE MUNI ARPT CLOUDY    37  31  77 NE10      29.85R
BOULDER MUN AP CLOUDY    37  32  81 E12       29.85R
CENTENNIAL     LGT RAIN  37  35  92 N15       29.82R
BROOMFIELD     CLOUDY    37  32  81 NE14      29.85R
FORT COLLINS   FAIR      35  26  69 NE18      29.83R WCI  24
LONGMONT       CLOUDY    38  29  68 NE10      29.88R
$$

COZ041-046-047-076>085-087-088-260500-
...PIKES PEAK/PALMER DIVIDE AND SOUTHERN FOOTHILLS...

CITY           SKY/WX    TMP DP  RH WIND       PRES   REMARKS
COLO. SPRINGS  LGT RAIN  39  34  82 NW12      29.78R
A. F. ACADEMY  FLURRIES  35  34  97 N12       29.79R WCI  26
SCHRIEVER AFB  MOCLDY    37  35  91 N13G21    29.77
ELLICOTT       NOT AVBL
FALCON         LGT RAIN  35  33  94 N13       29.79R WCI  26
FORT CARSON    LGT RAIN  39  36  87 N14       29.77R
LIMON          CLOUDY    38  38 100 NE21      29.77R
MONUMENT HILL  LGT SNOW  32  32 100 N15G21    29.81R WCI  22
TRINIDAD       RAIN      38  35  89 N13       29.76R FOG
$$

COZ042>045-048>051-090-091-260500-
...NORTHEAST COLORADO...

CITY           SKY/WX    TMP DP  RH WIND       PRES   REMARKS
GREELEY ARPT   FAIR      34  27  75 NE10      29.86R WCI  26
AKRON          MIX PCPN  36  33  89 NE16      29.81R
BURLINGTON     NOT AVBL
WRAY           NOT AVBL
STERLING       CLOUDY    36  34  93 NE10      29.82R
HOLYOKE        CLOUDY    37  32  81 N17       29.83R
FORT MORGAN    CLOUDY    37  31  79 N16       29.85R
$$

COZ086-089-092>099-260500-
...SOUTHEAST COLORADO...

CITY           SKY/WX    TMP DP  RH WIND       PRES   REMARKS
PUEBLO         LGT RAIN  44  40  85 W8        29.76R
LA JUNTA       LGT RAIN  45  41  86 CALM      29.72R
LAMAR          RAIN      45  43  93 NE5       29.69R FOG
SPRINGFIELD      N/A     43  42  97 N18       29.68R
$$




USA.gov is the U.S. government's official web portal to all federal, state and local government web resources and services.